FW7213 Weather Reports


Display with metric or nautical units.
time (UTC)temp
F
wind
direction
speed
MPH
gust
MPH
rain 1hr
in
rain 24hr
in
rain mn
in
humidity
%
barometer
mb
20260504181059 78 178 2.0 5.0 0.00 0.00 0.00 42 1017.1
20260504180558 77 0 1.0 3.0 0.00 0.00 0.00 40 1017.1
20260504180111 77 148 0.0 7.0 0.00 0.00 0.00 43 1017.3
20260504175558 76 211 1.0 7.0 0.00 0.00 0.00 47 1017.3
20260504175058 76 150 1.0 5.0 0.00 0.00 0.00 45 1017.3
20260504174610 76 138 1.0 5.0 0.00 0.00 0.00 45 1017.3
20260504174058 76 150 2.0 8.0 0.00 0.00 0.00 44 1017.5
20260504173558 75 147 3.0 8.0 0.00 0.00 0.00 46 1017.5
20260504173104 75 137 2.0 6.0 0.00 0.00 0.00 42 1017.5
20260504172558 75 65 2.0 6.0 0.00 0.00 0.00 46 1017.7
20260504172058 76 178 2.0 6.0 0.00 0.00 0.00 43 1017.6
20260504171557 75 144 2.0 5.0 0.00 0.00 0.00 47 1017.6
20260504171101 75 173 3.0 5.0 0.00 0.00 0.00 46 1017.7
20260504170559 75 241 2.0 4.0 0.00 0.00 0.00 48 1017.7
20260504170105 75 154 0.0 6.0 0.00 0.00 0.00 43 1017.9
20260504151058 70 0 0.0 3.0 0.00 0.00 0.00 56 1018.6
20260504150601 69 147 1.0 5.0 0.00 0.00 0.00 55 1018.7
20260504150103 69 249 2.0 5.0 0.00 0.00 0.00 56 1018.7
20260504141058 65 146 0.0 2.0 0.00 0.00 0.00 71 1019.0
20260504140558 64 143 0.0 3.0 0.00 0.00 0.00 72 1019.1
20260504130558 61 145 0.0 1.0 0.00 0.00 0.00 74 1018.6
20260504120104 49 0 0.0 0.0 0.00 0.00 0.00 95 1018.3
20260504110559 46 0 0.0 0.0 0.00 0.00 0.00 94 1018.2
20260504100557 48 0 0.0 0.0 0.00 0.00 0.00 95 1018.1
20260504081557 49 148 0.0 0.0 0.00 0.00 0.00 92 1018.2
20260504081101 49 0 0.0 0.0 0.00 0.00 0.00 92 1018.4
20260504080557 49 0 0.0 0.0 0.00 0.00 0.00 92 1018.4
20260504050558 53 0 0.0 0.0 0.00 0.00 0.00 82 1019.6
20260504045557 54 0 0.0 0.0 0.00 0.00 0.00 79 1019.5
20260504045058 54 0 0.0 0.0 0.00 0.00 0.00 82 1019.7
20260504044603 54 0 0.0 0.0 0.00 0.00 0.00 81 1019.6
20260504044100 54 0 0.0 0.0 0.00 0.00 0.00 81 1019.5
20260504043600 54 0 0.0 0.0 0.00 0.00 0.00 80 1019.5
20260504043101 54 0 0.0 0.0 0.00 0.00 0.00 82 1019.8
20260504042600 55 0 0.0 0.0 0.00 0.00 0.00 86 1019.8
20260504042102 55 0 0.0 0.0 0.00 0.00 0.00 80 1019.8
20260504041556 55 0 0.0 0.0 0.00 0.00 0.00 79 1019.8
20260504041059 55 0 0.0 0.0 0.00 0.00 0.00 76 1020.0
20260504040559 55 0 0.0 0.0 0.00 0.00 0.00 76 1019.9
20260504040106 55 0 0.0 0.0 0.00 0.00 0.00 76 1019.8
20260504035557 55 0 0.0 0.0 0.00 0.00 0.00 74 1019.9
20260504035058 55 0 0.0 0.0 0.00 0.00 0.00 72 1019.8
20260504034616 55 0 0.0 0.0 0.00 0.00 0.00 81 1019.8
20260504034058 55 0 0.0 0.0 0.00 0.00 0.00 81 1019.9
20260504033602 55 0 0.0 0.0 0.00 0.00 0.00 73 1019.9
20260504033127 55 0 0.0 0.0 0.00 0.00 0.00 75 1019.9
20260504032600 56 0 0.0 0.0 0.00 0.00 0.00 78 1019.9
20260504032100 56 0 0.0 0.0 0.00 0.00 0.00 77 1019.9
20260504031558 56 0 0.0 0.0 0.00 0.00 0.00 79 1019.8
20260504031058 56 0 0.0 0.0 0.00 0.00 0.00 76 1019.8
20260504030557 56 0 0.0 0.0 0.00 0.00 0.00 75 1019.9
20260504030104 56 0 0.0 0.0 0.00 0.00 0.00 77 1019.9
20260504025558 56 0 0.0 0.0 0.00 0.00 0.00 75 1019.8
20260504025058 56 0 0.0 0.0 0.00 0.00 0.00 77 1019.8
20260504024558 56 0 0.0 0.0 0.00 0.00 0.00 77 1019.6
20260504024102 57 0 0.0 0.0 0.00 0.00 0.00 79 1019.6
20260504023558 57 0 0.0 0.0 0.00 0.00 0.00 80 1019.5
20260504023105 57 0 0.0 0.0 0.00 0.00 0.00 76 1019.6
20260504022558 57 0 0.0 0.0 0.00 0.00 0.00 71 1019.7
20260504022100 57 0 0.0 0.0 0.00 0.00 0.00 69 1019.6
20260504021557 57 0 0.0 0.0 0.00 0.00 0.00 73 1019.6
20260504021058 57 0 0.0 0.0 0.00 0.00 0.00 72 1019.6
20260504020558 57 0 0.0 0.0 0.00 0.00 0.00 72 1019.7
20260504020100 57 0 0.0 0.0 0.00 0.00 0.00 73 1019.5
20260504015558 58 0 0.0 0.0 0.00 0.00 0.00 71 1019.5
20260504015101 58 0 0.0 0.0 0.00 0.00 0.00 71 1019.3
20260504014557 58 0 0.0 0.0 0.00 0.00 0.00 72 1019.2
20260504014057 58 0 0.0 0.0 0.00 0.00 0.00 74 1019.2
20260504013557 59 0 0.0 0.0 0.00 0.00 0.00 79 1019.1
20260504013109 59 0 0.0 0.0 0.00 0.00 0.00 78 1019.1
20260504012601 59 0 0.0 0.0 0.00 0.00 0.00 75 1018.9
20260504012100 60 0 0.0 0.0 0.00 0.00 0.00 75 1018.9
20260504011556 60 0 0.0 0.0 0.00 0.00 0.00 75 1018.8
20260504011057 60 0 0.0 0.0 0.00 0.00 0.00 67 1018.9
20260504010558 60 0 0.0 0.0 0.00 0.00 0.00 67 1019.0
20260504010113 61 0 0.0 0.0 0.00 0.00 0.00 71 1018.9
20260504005601 61 0 0.0 0.0 0.00 0.00 0.00 68 1018.9
20260504005058 62 0 0.0 0.0 0.00 0.00 0.00 68 1018.9
20260504004624 62 0 0.0 0.0 0.00 0.00 0.00 67 1018.6
20260504004059 63 0 0.0 0.0 0.00 0.00 0.00 63 1018.5
20260504003601 63 0 0.0 0.0 0.00 0.00 0.00 63 1018.4
20260504003056 64 0 0.0 0.0 0.00 0.00 0.00 62 1018.5
20260504002558 65 0 0.0 0.0 0.00 0.00 0.00 64 1018.4
20260504002058 66 0 0.0 0.0 0.00 0.00 0.00 61 1018.3
20260504001612 66 0 0.0 0.0 0.00 0.00 0.00 55 1018.3
20260504001058 67 0 0.0 0.0 0.00 0.00 0.00 55 1018.3
20260504000558 68 0 0.0 0.0 0.00 0.00 0.00 50 1018.2
20260504000059 69 0 0.0 1.0 0.00 0.00 0.00 49 1018.1
20260503235559 70 0 0.0 1.0 0.00 0.00 0.00 47 1018.2
20260503235059 70 0 0.0 1.0 0.00 0.00 0.00 47 1018.2
20260503234557 70 287 0.0 1.0 0.00 0.00 0.00 46 1018.2
20260503234059 70 0 0.0 2.0 0.00 0.00 0.00 46 1018.1
20260503233559 71 0 0.0 3.0 0.00 0.00 0.00 42 1018.1
20260503233058 71 350 0.0 3.0 0.00 0.00 0.00 44 1018.2
20260503232559 72 343 0.0 1.0 0.00 0.00 0.00 44 1018.2
20260503232058 72 8 0.0 2.0 0.00 0.00 0.00 38 1018.3
20260503231558 72 0 0.0 2.0 0.00 0.00 0.00 44 1018.3
20260503231058 73 0 0.0 2.0 0.00 0.00 0.00 37 1018.4
20260503230559 74 302 0.0 2.0 0.00 0.00 0.00 37 1018.5
20260503225559 74 3 1.0 3.0 0.00 0.00 0.00 41 1018.3
20260503225059 74 4 1.0 3.0 0.00 0.00 0.00 42 1018.4
20260503224600 74 49 1.0 3.0 0.00 0.00 0.00 41 1018.3
20260503224100 74 340 1.0 2.0 0.00 0.00 0.00 40 1018.2
20260503223600 75 6 0.0 2.0 0.00 0.00 0.00 40 1018.2
20260503223103 74 49 0.0 2.0 0.00 0.00 0.00 41 1018.3
20260503222559 74 62 1.0 3.0 0.00 0.00 0.00 40 1018.2
20260503222058 74 357 1.0 3.0 0.00 0.00 0.00 40 1018.2
20260503221602 75 356 1.0 4.0 0.00 0.00 0.00 40 1018.2
20260503221059 75 318 0.0 4.0 0.00 0.00 0.00 41 1018.2
20260503220559 74 12 2.0 4.0 0.00 0.00 0.00 35 1018.2
20260503220059 75 59 1.0 3.0 0.00 0.00 0.00 41 1018.3
20260503215557 75 23 1.0 4.0 0.00 0.00 0.00 41 1018.4
20260503215058 75 334 1.0 4.0 0.00 0.00 0.00 40 1018.4
20260503214601 75 287 1.0 4.0 0.00 0.00 0.00 39 1018.4
20260503214100 75 313 1.0 4.0 0.00 0.00 0.00 39 1018.5
20260503213558 75 59 1.0 4.0 0.00 0.00 0.00 37 1018.5
20260503213108 75 2 1.0 4.0 0.00 0.00 0.00 39 1018.6
20260503212558 75 360 1.0 4.0 0.00 0.00 0.00 35 1018.6
20260503212058 75 328 1.0 3.0 0.00 0.00 0.00 41 1018.7
20260503211559 75 348 1.0 3.0 0.00 0.00 0.00 39 1018.8
20260503211057 75 11 1.0 5.0 0.00 0.00 0.00 42 1018.8
20260503210603 75 351 1.0 5.0 0.00 0.00 0.00 42 1018.9
20260503210112 74 0 1.0 5.0 0.00 0.00 0.00 41 1018.9
20260503205559 75 352 3.0 5.0 0.00 0.00 0.00 39 1018.9
20260503205059 75 55 0.0 9.0 0.00 0.00 0.00 44 1018.9
20260503204611 74 91 2.0 9.0 0.00 0.00 0.00 41 1019.0
20260503204058 74 273 3.0 9.0 0.00 0.00 0.00 39 1019.1
20260503203603 75 338 2.0 5.0 0.00 0.00 0.00 40 1019.0
20260503203106 75 309 2.0 6.0 0.00 0.00 0.00 40 1019.1
20260503202600 75 8 2.0 6.0 0.00 0.00 0.00 40 1019.1
20260503202058 74 354 2.0 6.0 0.00 0.00 0.00 43 1019.2
20260503201604 74 0 1.0 6.0 0.00 0.00 0.00 36 1019.4
20260503201058 74 246 2.0 5.0 0.00 0.00 0.00 39 1019.5
20260503200558 74 347 2.0 5.0 0.00 0.00 0.00 40 1019.5
20260503200101 74 312 3.0 8.0 0.00 0.00 0.00 37 1019.6
20260503195555 75 301 2.0 8.0 0.00 0.00 0.00 35 1019.7
20260503195057 75 269 1.0 8.0 0.00 0.00 0.00 40 1019.7
20260503194556 75 43 1.0 5.0 0.00 0.00 0.00 39 1019.8
20260503194058 75 15 1.0 4.0 0.00 0.00 0.00 44 1019.9
20260503193558 75 345 1.0 3.0 0.00 0.00 0.00 41 1020.1
20260503193102 74 30 1.0 6.0 0.00 0.00 0.00 43 1020.1
20260503192558 74 321 2.0 6.0 0.00 0.00 0.00 42 1020.2
20260503192057 74 293 2.0 5.0 0.00 0.00 0.00 40 1020.2
20260503191620 74 245 2.0 6.0 0.00 0.00 0.00 42 1020.2
20260503191055 74 356 2.0 6.0 0.00 0.00 0.00 44 1020.2
20260503190556 74 299 1.0 5.0 0.00 0.00 0.00 39 1020.3
20260503190056 73 321 2.0 8.0 0.00 0.00 0.00 41 1020.4
20260503185601 73 352 2.0 8.0 0.00 0.00 0.00 41 1020.5
20260503185057 73 11 3.0 8.0 0.00 0.00 0.00 41 1020.5
20260503184559 74 325 1.0 4.0 0.00 0.00 0.00 39 1020.6
20260503184103 74 40 1.0 6.0 0.00 0.00 0.00 39 1020.5
20260503183558 74 340 2.0 6.0 0.00 0.00 0.00 40 1020.6
20260503183112 74 357 1.0 4.0 0.00 0.00 0.00 39 1020.6
20260503182555 74 51 1.0 6.0 0.00 0.00 0.00 41 1020.5
20260503182057 74 341 2.0 6.0 0.00 0.00 0.00 39 1020.6
20260503181602 73 345 2.0 4.0 0.00 0.00 0.00 42 1020.5